Location: Dallas
(32.7833°N, 96.8000°W)
Time: 14:02:21
(UTC-05:00)

Envisat - Pass Details

Date: 09 July 2022
Orbit: 763 x 765 km, 98.2° (Epoch: 07 August)

Event Time Altitude Azimuth Distance (km) Brightness Sun altitude
Rises 05:50:36 0° 13° (NNE) 3,233 7.0 -7.4°
Reaches altitude 10° 05:52:55 10° 14° (NNE) 2,303 6.2 -7.0°
Maximum altitude 05:58:00 84° 102° (ESE) 771 3.1 -6.1°
Drops below altitude 10° 06:03:04 10° 191° (SSW) 2,289 5.1 -5.2°
Sets 06:05:21 0° 192° (SSW) 3,211 5.8 -4.8°
